Weather History for St. Petersburg, FL

Change the Weather History Date:

Tuesday, April 23, 2013

  Actual Average Record
Temperature  
Mean Temperature 76 °F -  
Max Temperature 84 °F 83 °F 89 °F (1999)
Min Temperature 68 °F 67 °F 56 °F (1993)
Cooling Degree Days 11    
Growing Degree Days 26 (Base 50)    
Moisture  
Dew Point 64 °F    
Average Humidity 72    
Maximum Humidity 90    
Minimum Humidity 49    
Precipitation  
Precipitation 0.00 in - - ()
Sea Level Pressure  
Sea Level Pressure 30.06 in    
Wind  
Wind Speed 16 mph (ENE)    
Max Wind Speed 22 mph    
Max Gust Speed -    
Visibility 10 miles    
Events      
Averages and records for this station are not official NWS values.
T = Trace of Precipitation, MM = Missing Value Source: NWS Daily Summary

Daily Weather History Graph

Daily Weather History Graph

Search for Another Location

Airport:

Trip Planner

Search our weather history database for the weather conditions in past years. The results will help you decide how hot, cold, wet, or windy it might be!

Date:

Astronomy

Apr. 23, 2013 Rise Set
Actual Time 6:57 AM EDT 8:00 PM EDT
Civil Twilight 6:33 AM EDT 8:24 PM EDT
Nautical Twilight 6:04 AM EDT 8:53 PM EDT
Astronomical Twilight 5:35 AM EDT 9:23 PM EDT
Moon 6:02 PM EDT (4/23) 5:13 AM EDT (4/23)
Length of Visible Light 13h 51m
Length of Day
13h 02m
Waxing Gibbous, 94% of the Moon is Illuminated
Apr 23
Waxing Gibbous
Apr 25
Full
May 2
Last Quarter
May 9
New
May 18
First Quarter

Hourly Weather History & Observations

Time (EDT) Temp. Heat Index Dew Point Humidity Pressure Visibility Wind Dir Wind Speed Gust Speed Precip Events Conditions
12:13 AM 70.0 °F - 64.9 °F 84% 30.07 in 10.0 mi ENE 21.9 mph - N/A   Mostly Cloudy
12:53 AM 69.1 °F - 64.9 °F 87% 30.07 in 10.0 mi ENE 20.7 mph - N/A   Overcast
1:53 AM 69.1 °F - 64.9 °F 87% 30.06 in 10.0 mi East 19.6 mph - N/A   Overcast
2:53 AM 69.1 °F - 64.9 °F 87% 30.04 in 10.0 mi ENE 15.0 mph - N/A   Overcast
3:53 AM 68.0 °F - 64.9 °F 90% 30.03 in 10.0 mi East 20.7 mph - N/A   Overcast
4:53 AM 69.1 °F - 66.0 °F 90% 30.02 in 9.0 mi East 16.1 mph - N/A   Overcast
6:53 AM 68.0 °F - 64.9 °F 90% 30.04 in 8.0 mi NE 13.8 mph - N/A   Overcast
7:53 AM 68.0 °F - 64.9 °F 90% 30.06 in 7.0 mi NE 12.7 mph - N/A   Overcast
8:53 AM 68.0 °F - 64.0 °F 87% 30.08 in 9.0 mi NE 13.8 mph - N/A   Overcast
9:27 AM 70.0 °F - 64.0 °F 81% 30.09 in 9.0 mi ENE 15.0 mph - N/A   Partly Cloudy
9:53 AM 71.1 °F - 64.9 °F 81% 30.10 in 10.0 mi ENE 13.8 mph - N/A   Clear
10:53 AM 72.0 °F - 64.9 °F 78% 30.11 in 10.0 mi East 12.7 mph - N/A   Clear
11:53 AM 75.9 °F - 64.9 °F 69% 30.10 in 10.0 mi East 11.5 mph - N/A   Clear
12:53 PM 79.0 °F - 64.9 °F 62% 30.08 in 10.0 mi East 6.9 mph - N/A   Clear
1:53 PM 82.0 °F 83.8 °F 64.9 °F 56% 30.06 in 10.0 mi East 4.6 mph - N/A   Clear
2:53 PM 82.9 °F 84.6 °F 64.9 °F 54% 30.05 in 10.0 mi ENE 3.5 mph - N/A   Clear
3:53 PM 84.9 °F 86.1 °F 64.0 °F 49% 30.03 in 10.0 mi East 3.5 mph - N/A   Clear
4:53 PM 84.0 °F 85.4 °F 64.0 °F 51% 30.01 in 10.0 mi East 3.5 mph - N/A   Clear
5:53 PM 84.0 °F 84.9 °F 63.0 °F 49% 30.01 in 10.0 mi ENE 5.8 mph - N/A   Clear
6:53 PM 81.0 °F 83.3 °F 66.9 °F 62% 30.02 in 10.0 mi East 9.2 mph - N/A   Clear
7:53 PM 80.1 °F 82.1 °F 66.0 °F 62% 30.03 in 10.0 mi East 15.0 mph - N/A   Clear
8:53 PM 79.0 °F - 64.0 °F 60% 30.05 in 10.0 mi East 18.4 mph - N/A   Mostly Cloudy
9:53 PM 77.0 °F - 62.1 °F 60% 30.08 in 10.0 mi East 20.7 mph - N/A   Clear
10:53 PM 75.0 °F - 62.1 °F 64% 30.10 in 10.0 mi East 17.3 mph - N/A   Clear
11:53 PM 73.0 °F - 62.1 °F 68% 30.11 in 10.0 mi ESE 15.0 mph - N/A   Clear